Location: Favalello
(42.2939°N, 9.2706°E)
Time: 00:43:46
(UTC+00:00)

Cosmos 407 Rocket - Pass Details

Date: 06 December 2019
Orbit: 743 x 787 km, 74.0° (Epoch: 17 January)

Event Time Altitude Azimuth Distance (km) Brightness Sun altitude
Rises 18:34:35 0° 202° (SSW) 3,181 7.0 -29.6°
Reaches altitude 10° 18:36:55 10° 203° (SSW) 2,266 6.2 -30.0°
Enters shadow 18:40:09 40° 210° (SSW) 1,110 4.5 -30.6°
